Weather History for Wilmington, NC

Change the Weather History Date:

Thursday, January 17, 2013

  Actual Average Record
Temperature  
Mean Temperature 61 °F 46 °F  
Max Temperature 78 °F 56 °F 78 °F (2013)
Min Temperature 44 °F 36 °F 11 °F (1977)
Degree Days  
Heating Degree Days 4 19  
Month to date heating degree days 181 323  
Since 1 July heating degree days 1059 1207  
Cooling Degree Days 0 0  
Month to date cooling degree days 8 0  
Year to date cooling degree days 8 0  
Growing Degree Days 12 (Base 50)    
Moisture  
Dew Point 55 °F    
Average Humidity 74    
Maximum Humidity 100    
Minimum Humidity 48    
Precipitation  
Precipitation 1.27 in 0.13 in 1.47 in (1919)
Month to date precipitation 1.88 2.06  
Year to date precipitation 1.88 2.06  
Snow  
Snow 0.00 in 0.10 in 0.20 in (1901)
Month to date snowfall 0.0 0.3  
Since 1 July snowfall 0.0 1.1  
Snow Depth 0.00 in    
Sea Level Pressure  
Sea Level Pressure 29.90 in    
Wind  
Wind Speed 10 mph (East)    
Max Wind Speed 22 mph    
Max Gust Speed 28 mph    
Visibility 6 miles    
Events Fog , Rain    
T = Trace of Precipitation, MM = Missing Value Source: NWS Daily Summary

Daily Weather History Graph

Daily Weather History Graph

Search for Another Location

Airport:

Trip Planner

Search our weather history database for the weather conditions in past years. The results will help you decide how hot, cold, wet, or windy it might be!

Date:

Astronomy

Jan. 17, 2013 Rise Set
Actual Time 7:16 AM EST 5:27 PM EST
Civil Twilight 6:49 AM EST 5:54 PM EST
Nautical Twilight 6:19 AM EST 6:24 PM EST
Astronomical Twilight 5:48 AM EST 6:55 PM EST
Moon 10:41 AM EST (1/17) 11:55 PM EST (1/17)
Length of Visible Light 11h 04m
Length of Day
10h 10m
Waxing Crescent, 37% of the Moon is Illuminated
Jan 17
Waxing Crescent
Jan 18
First Quarter
Jan 26
Full
Feb 3
Last Quarter
Feb 10
New

Hourly Weather History & Observations

Time (EST) Temp. Windchill Dew Point Humidity Pressure Visibility Wind Dir Wind Speed Gust Speed Precip Events Conditions
12:53 AM 61.0 °F - 59.0 °F 93% 29.99 in 6.0 mi SSW 3.5 mph - N/A   Clear
1:53 AM 60.8 °F - 59.0 °F 94% 29.99 in 8.0 mi West 3.5 mph - N/A   Clear
2:21 AM 60.8 °F - 59.0 °F 94% 29.99 in 1.8 mi Calm Calm - N/A   Clear
2:28 AM 60.8 °F - 57.2 °F 88% 29.98 in 0.8 mi Calm Calm - N/A   Clear
2:35 AM 59.0 °F - 57.2 °F 94% 29.98 in 0.2 mi Calm Calm - N/A Fog Fog
2:53 AM 57.9 °F - 57.9 °F 100% 29.98 in 0.5 mi Calm Calm - N/A Fog Fog
3:23 AM 57.2 °F - 57.2 °F 100% 29.97 in 1.0 mi Calm Calm - N/A   Mist
3:31 AM 57.2 °F - 55.4 °F 94% 29.97 in 0.8 mi SSW 3.5 mph - N/A   Mist
3:35 AM 59.0 °F - 57.2 °F 94% 29.97 in 1.0 mi SSW 3.5 mph - N/A   Clear
3:40 AM 59.0 °F - 57.2 °F 94% 29.97 in 2.0 mi South 3.5 mph - N/A   Clear
3:53 AM 60.8 °F - 60.8 °F 100% 29.96 in 8.0 mi SSW 5.8 mph - N/A   Clear
4:53 AM 62.1 °F - 61.0 °F 96% 29.96 in 10.0 mi SSW 6.9 mph - N/A   Clear
5:53 AM 64.0 °F - 61.0 °F 90% 29.96 in 10.0 mi SW 9.2 mph - N/A   Clear
6:53 AM 63.0 °F - 60.1 °F 90% 29.97 in 10.0 mi SSW 6.9 mph - N/A   Clear
7:53 AM 63.0 °F - 60.1 °F 90% 29.98 in 10.0 mi SSW 6.9 mph - N/A   Clear
8:53 AM 64.9 °F - 61.0 °F 87% 29.99 in 10.0 mi SW 8.1 mph - N/A   Clear
9:53 AM 69.1 °F - 61.0 °F 75% 29.99 in 10.0 mi SW 10.4 mph - N/A   Clear
10:53 AM 73.0 °F - 61.0 °F 66% 29.96 in 10.0 mi WSW 10.4 mph - N/A   Clear
11:53 AM 75.9 °F - 60.1 °F 58% 29.92 in 10.0 mi WSW 10.4 mph - N/A   Clear
12:53 PM 78.1 °F - 57.9 °F 50% 29.88 in 10.0 mi SW 11.5 mph - N/A   Partly Cloudy
1:53 PM 78.1 °F - 57.9 °F 50% 29.85 in 10.0 mi South 11.5 mph 21.9 mph N/A   Partly Cloudy
2:53 PM 75.9 °F - 60.1 °F 58% 29.83 in 10.0 mi South 16.1 mph 21.9 mph N/A   Mostly Cloudy
3:53 PM 72.0 °F - 63.0 °F 73% 29.82 in 10.0 mi SE 9.2 mph - N/A   Overcast
4:41 PM 62.6 °F - 57.2 °F 82% 29.81 in 10.0 mi East 16.1 mph 24.2 mph N/A   Mostly Cloudy
4:48 PM 60.8 °F - 55.4 °F 82% 29.81 in 10.0 mi East 19.6 mph 27.6 mph N/A   Mostly Cloudy
4:53 PM 59.0 °F - 55.0 °F 87% 29.81 in 9.0 mi East 13.8 mph 27.6 mph 0.00 in Rain Light Rain
5:06 PM 57.2 °F - 55.4 °F 94% 29.82 in 2.5 mi East 9.2 mph 20.7 mph 0.06 in Rain Rain
5:13 PM 57.2 °F - 55.4 °F 94% 29.82 in 6.0 mi East 13.8 mph 17.3 mph 0.07 in Rain Light Rain
5:49 PM 55.4 °F - 55.4 °F 100% 29.82 in 2.0 mi North 5.8 mph - 0.20 in Rain Rain
5:53 PM 55.9 °F - 54.0 °F 93% 29.82 in 2.0 mi ENE 13.8 mph 17.3 mph 0.21 in Rain Rain
6:00 PM 55.4 °F - 53.6 °F 94% 29.83 in 4.0 mi East 15.0 mph 20.7 mph 0.02 in Rain Light Rain
6:07 PM 55.4 °F - 53.6 °F 94% 29.83 in 9.0 mi East 16.1 mph 23.0 mph 0.03 in Rain Light Rain
6:53 PM 55.9 °F - 53.1 °F 90% 29.81 in 10.0 mi ENE 11.5 mph - 0.03 in   Overcast
7:32 PM 53.6 °F - 51.8 °F 94% 29.76 in 10.0 mi ENE 15.0 mph - 0.00 in Rain Light Rain
7:48 PM 53.6 °F - 51.8 °F 94% 29.80 in 2.5 mi Variable 5.8 mph 23.0 mph 0.06 in Rain Heavy Rain
7:53 PM 53.1 °F - 52.0 °F 96% 29.80 in 1.2 mi North 11.5 mph 23.0 mph 0.21 in Rain Heavy Rain
8:01 PM 53.6 °F - 51.8 °F 94% 29.83 in 1.5 mi Variable 3.5 mph 23.0 mph 0.14 in Rain Heavy Rain
8:24 PM 53.6 °F - 51.8 °F 94% 29.86 in 2.0 mi North 8.1 mph - 0.39 in Rain Heavy Rain
8:45 PM 51.8 °F - 50.0 °F 94% 29.85 in 2.0 mi NE 11.5 mph - 0.59 in Rain Heavy Rain
8:50 PM 51.8 °F - 48.2 °F 88% 29.85 in 1.8 mi NNE 12.7 mph - 0.65 in Rain Heavy Rain
8:53 PM 51.1 °F - 48.9 °F 92% 29.85 in 1.8 mi NNE 12.7 mph - 0.68 in Rain Heavy Rain
9:03 PM 50.0 °F - 48.2 °F 94% 29.87 in 2.5 mi NNE 10.4 mph - 0.09 in Rain Heavy Rain
9:08 PM 50.0 °F - 48.2 °F 94% 29.87 in 3.0 mi North 13.8 mph 19.6 mph 0.10 in Rain Rain
9:29 PM 48.2 °F - 44.6 °F 87% 29.88 in 7.0 mi North 11.5 mph - 0.14 in Rain Light Rain
9:53 PM 46.9 °F - 44.1 °F 90% 29.91 in 10.0 mi NW 10.4 mph - 0.14 in   Overcast
10:18 PM 46.4 °F 40.4 °F 42.8 °F 87% 29.90 in 10.0 mi North 13.8 mph - N/A   Overcast
10:53 PM 45.0 °F 38.2 °F 42.1 °F 90% 29.94 in 7.0 mi North 15.0 mph 24.2 mph 0.00 in Rain Light Rain
11:53 PM 44.1 °F 37.7 °F 39.9 °F 85% 29.99 in 10.0 mi NNW 12.7 mph 21.9 mph 0.00 in   Overcast